Probability
0 0 0 0 0 0 0 0 0 0 0 0 0 0 0 0 0 0 0 0 0 0 0 0 0 1 2 2 1 0 1 2 2 1 3 4 3 2 1 1 2 3 3 2
0 0 0 0 0 0 0 0 0 0 0 0 0 0 0 0 0 0 0 0 0 0 0 0 0 0 1 1 0 0 0 1 1 0 1 2 2 2 2 1 1 2 2 2
0 0 0 0 0 0 0 0 0 0 0 0 0 0 0 0 0 0 0 0 0 0 0 0 0 0 0 0 0 0 0 0 0 0 0 0 1 2 3 2 1 1 1 2
0 0 0 0 0 0 0 0 0 0 0 0 0 0 0 0 0 0 0 0 0 0 0 0 0 0 1 1 1 0 0 0 0 0 0 0 0 1 2 3 3 2 1 1
0 0 0 0 0 0 0 0 0 0 0 0 0 0 0 0 0 0 0 0 0 0 0 0 0 0 1 1 1 0 0 0 0 0 0 0 0 0 1 2 2 2 1 0
0 0 0 0 0 0 0 0 0 0 0 0 0 0 0 0 0 0 0 0 0 0 0 0 0 0 1 1 0 0 0 0 0 0 0 0 0 0 0 1 1 1 0 0
0 0 0 0 0 0 0 0 0 0 0 0 0 0 0 0 0 0 0 0 0 0 0 0 0 0 0 0 0 0 0 0 0 0 0 0 0 0 0 0 0 0 0 1
0 0 0 0 0 0 0 0 0 0 0 0 0 0 0 0 0 0 0 0 0 0 0 0 0 0 0 0 0 0 0 0 0 0 0 0 0 0 0 0 0 0 1 2
0 0 0 0 0 0 0 0 0 0 0 0 0 0 0 0 0 0 0 0 0 0 0 0 0 0 0 0 0 0 0 0 0 0 0 0 0 0 0 0 0 0 1 2
0 0 0 0 0 0 0 0 0 0 0 0 0 0 0 0 0 0 0 0 0 0 0 0 0 0 0 0 0 0 0 0 0 0 0 0 0 0 0 0 0 0 0 1
0 0 0 0 0 0 0 0 0 0 0 0 0 0 0 0 0 0 0 0 0 0 0 0 0 0 0 0 0 0 0 0 0 0 0 0 0 0 0 0 0 0 0 0
0 0 0 0 0 0 0 0 0 0 0 0 0 0 0 0 0 0 0 0 0 0 0 0 0 0 0 0 0 0 0 0 0 0 0 0 0 0 0 0 0 0 0 0
0 0 0 0 0 0 0 0 0 0 0 0 0 0 0 0 0 0 0 0 0 0 0 0 0 0 0 0 0 0 0 0 0 0 0 0 0 0 0 0 0 0 0 0
0 0 0 0 0 0 0 0 0 0 0 0 0 0 0 0 0 0 0 0 0 0 0 0 0 0 0 0 0 0 0 0 0 0 0 0 0 0 0 0 0 0 0 0
0 0 0 0 0 0 0 0 0 0 0 0 0 0 0 0 0 0 0 0 0 0 0 0 0 0 0 0 0 0 0 0 0 0 0 0 0 0 0 0 0 0 0 0
0 0 0 0 0 0 0 0 0 0 0 0 0 0 0 0 0 0 0 0 0 0 0 0 0 0 0 0 0 0 0 0 0 0 0 0 0 0 0 0 0 0 0 0
0 0 0 0 0 0 0 0 0 0 0 0 0 0 0 0 0 0 0 0 0 0 0 0 0 0 0 0 0 0 0 0 0 0 0 0 0 0 0 0 0 0 0 0
0 0 0 0 0 0 0 0 0 0 0 0 0 0 0 0 0 0 0 0 0 0 0 0 0 0 0 0 0 0 0 0 0 0 0 0 0 0 0 0 0 0 0 0
0 0 0 0 0 0 0 0 0 0 0 0 0 0 0 0 0 0 0 0 0 0 0 0 0 0 0 0 0 0 0 0 0 0 0 0 0 0 0 0 0 0 0 0
0 0 0 0 0 0 0 0 0 0 0 0 0 0 0 0 0 0 0 0 0 0 0 0 0 0 0 0 0 0 0 0 0 0 0 0 0 0 0 0 0 0 0 0
0 0 0 0 0 0 0 0 0 0 0 0 0 0 0 0 0 0 0 0 0 0 0 0 0 0 0 0 0 0 0 0 0 0 0 0 0 0 0 0 0 0 0 0
0 0 0 0 0 0 0 0 0 0 0 0 0 0 0 0 0 0 0 0 0 0 0 0 0 0 0 0 0 0 0 0 0 0 0 0 0 0 0 0 0 0 0 0
0 0 0 0 0 0 0 0 0 0 0 0 0 0 0 0 0 0 0 0 0 0 0 0 0 0 0 0 0 0 0 0 0 0 0 0 0 0 0 0 0 0 0 0
0 0 0 0 0 0 0 0 0 0 0 0 0 0 0 0 0 0 0 0 0 0 0 0 0 0 0 0 0 0 0 0 0 0 0 0 0 0 0 0 0 0 0 0
0 0 0 0 0 0 0 0 0 0 0 0 0 0 0 0 0 0 0 0 0 0 0 0 0 0 0 0 0 0 0 0 0 0 0 0 0 0 0 0 0 0 0 0
0 0 0 0 0 0 0 0 0 0 0 0 0 0 0 0 0 0 0 0 0 0 0 0 0 0 0 0 0 0 0 0 0 0 0 0 0 0 0 0 0 0 0 0
0 0 0 0 0 0 0 0 0 0 0 0 0 0 0 0 0 0 0 0 0 0 0 0 0 0 0 0 0 0 0 0 0 0 0 0 0 0 0 0 0 0 0 0
Wind_Speed
14 16 16 17 17 13 12 12 12 15 16 15 12 10 9 8 9 10 10 9 8 7 7 6 5 5 3 3 3 2 2 2 3 3 4 4 5 6 7 8 8 9 11 12
13 14 14 18 18 15 14 13 14 16 18 11 10 9 8 8 9 10 10 9 8 8 7 6 6 5 4 3 3 2 2 2 3 2 2 3 4 5 6 7 7 9 10 11
9 9 11 12 10 10 9 9 9 12 12 10 10 9 9 8 8 9 10 10 10 9 7 6 5 5 5 4 3 3 2 2 3 2 3 3 3 4 5 6 7 8 9 11
7 7 9 8 3 4 7 8 7 8 7 7 9 10 7 6 7 8 9 10 10 9 8 6 5 5 4 4 3 3 3 3 3 2 2 2 3 3 4 5 6 7 8 9
4 7 12 8 5 3 4 7 5 5 8 8 9 9 6 5 6 8 8 9 9 8 8 7 5 5 4 4 3 3 3 3 3 2 2 2 3 4 3 4 5 6 7 8
5 7 8 5 1 2 3 6 2 4 6 7 7 7 7 8 9 9 9 8 8 8 8 7 5 4 4 5 4 4 4 4 3 3 3 3 4 4 3 3 4 5 5 7
10 9 10 6 1 2 2 5 4 5 5 6 6 6 8 9 10 9 9 9 9 8 7 7 5 5 5 4 5 4 4 3 3 3 3 4 4 3 3 3 3 4 5 5
7 9 11 2 2 3 6 4 5 5 6 7 8 9 9 10 10 10 10 10 9 8 8 7 5 5 5 5 4 4 3 3 3 3 3 3 3 3 4 4 4 5 5 5
9 10 6 2 4 5 5 6 5 5 6 7 8 9 10 10 10 10 10 9 8 8 9 7 6 5 5 5 4 3 3 3 3 3 3 4 4 4 4 4 4 4 4 5
8 9 9 8 6 5 4 5 6 6 7 7 9 10 10 10 10 10 9 9 8 8 8 8 6 6 5 5 3 3 3 3 2 3 3 3 3 3 3 4 5 5 5 5
11 11 10 8 6 5 5 5 6 7 6 7 9 10 10 9 9 9 9 8 7 7 8 8 7 7 5 4 3 3 3 3 2 2 2 2 2 2 3 3 5 6 6 6
12 8 6 6 4 5 6 6 6 6 7 7 7 9 9 9 8 8 9 8 7 8 7 8 8 7 5 4 2 2 2 2 2 2 1 2 2 0 0 2 4 6 7 7
12 8 7 7 5 5 5 6 6 6 7 7 7 8 9 9 8 8 8 8 8 8 8 8 8 7 6 4 2 2 2 3 2 2 1 1 2 2 1 1 2 4 7 8
7 6 8 7 6 5 6 5 5 6 6 6 7 7 8 8 8 9 8 8 8 8 8 8 7 6 5 4 2 2 3 3 3 2 1 1 2 2 2 3 2 2 4 9
6 6 6 5 5 5 4 4 5 6 6 6 6 7 7 8 9 9 9 8 8 8 8 7 6 6 5 3 2 2 3 2 1 1 1 2 2 2 2 3 3 3 3 5
4 4 5 5 6 5 4 5 6 6 6 7 7 7 8 8 9 9 8 7 7 8 8 7 6 6 5 4 3 2 2 3 3 2 2 2 2 3 3 3 4 4 4 5
4 5 5 5 5 5 5 5 5 6 6 7 7 8 8 8 9 9 8 7 7 8 7 6 7 6 5 4 3 2 1 2 3 2 2 2 3 3 3 4 4 4 4 6
5 5 4 4 4 4 5 5 5 6 6 7 7 8 8 9 9 9 9 8 8 7 7 6 6 6 5 4 2 1 2 2 2 2 2 2 3 3 3 4 4 5 4 6
2 2 2 3 2 3 4 4 5 6 6 6 7 8 8 9 9 9 8 8 8 8 7 6 9 6 5 4 4 2 2 2 2 2 2 3 3 3 4 4 4 4 5 5
1 1 1 2 2 3 4 5 5 6 6 6 7 8 9 9 8 8 8 7 6 6 7 8 7 5 4 4 5 2 2 3 3 3 2 3 3 3 3 4 4 5 5 5
1 2 2 3 4 4 4 5 6 7 7 7 7 9 9 9 8 7 7 8 7 6 7 10 6 4 4 4 5 2 2 3 3 3 3 3 3 4 4 4 4 5 5 5
2 2 3 3 4 5 5 5 5 7 7 7 8 8 8 9 8 8 8 7 7 9 7 5 4 6 7 7 4 3 3 3 3 3 3 3 4 4 4 4 4 5 5 6
2 3 3 4 5 6 6 6 6 7 7 8 8 8 8 8 7 7 8 6 5 10 7 5 7 11 11 6 4 3 3 3 3 3 3 4 4 4 5 5 5 5 5 6
3 3 4 4 5 6 7 7 7 6 7 8 8 8 8 7 7 6 6 9 11 12 7 7 12 12 11 5 3 3 3 3 3 3 3 3 4 4 5 5 5 5 5 6
3 4 4 5 5 5 6 7 7 7 7 6 7 7 6 6 7 7 6 7 10 11 7 8 12 12 7 4 3 3 3 3 4 3 4 4 4 5 5 5 5 5 5 5
4 4 4 5 5 5 5 5 5 5 6 6 6 5 5 5 6 6 6 7 8 10 7 5 5 7 4 3 3 3 3 3 3 3 4 4 4 5 5 5 6 5 5 5
4 4 4 4 4 4 4 5 5 6 6 7 7 6 6 6 6 6 7 7 6 6 5 5 4 4 4 3 3 3 2 2 2 3 3 4 4 4 5 6 5 5 5 6
Wind_Direction
267 276 278 278 278 272 259 254 260 274 281 289 305 313 317 320 323 323 326 330 331 331 329 327 323 318 320 315 307 299 285 278 271 255 228 212 206 200 194 194 193 185 184 183
275 269 272 274 269 264 261 259 261 273 279 290 302 304 315 322 324 326 328 327 325 325 324 322 320 316 315 310 297 282 271 269 280 270 251 217 206 198 189 192 191 187 185 182
278 294 296 272 254 249 249 249 257 267 279 302 309 316 324 325 327 327 329 330 326 319 316 310 308 310 312 298 292 285 276 259 256 248 258 238 217 204 196 193 185 186 187 183
281 300 258 250 255 269 272 267 264 274 290 305 311 313 310 315 327 327 330 326 320 315 312 305 300 303 304 302 292 282 279 275 242 227 232 234 222 219 208 196 185 186 186 185
263 269 272 269 264 273 283 282 272 286 306 318 324 318 308 333 338 327 322 317 312 309 305 301 299 301 305 301 288 276 276 275 252 229 225 225 220 216 212 197 190 186 182 181
246 258 262 269 47 35 329 279 301 312 312 321 331 319 308 331 328 321 319 315 311 309 308 302 298 298 296 287 279 272 270 264 246 228 220 222 224 217 201 199 193 182 181 181
239 252 263 271 127 75 249 264 329 331 321 317 304 285 300 315 317 316 313 310 309 307 304 298 297 297 287 277 270 268 267 252 240 232 224 220 221 210 192 189 180 181 178 177
216 234 251 219 135 216 246 297 308 310 305 301 300 304 311 313 313 314 314 312 313 309 304 302 303 300 288 281 275 273 271 253 235 228 227 220 212 206 190 181 177 179 171 165
213 229 259 241 237 246 267 287 295 299 304 304 305 305 308 309 310 310 310 311 313 311 307 307 307 305 294 288 284 279 272 262 243 234 222 212 202 201 190 184 181 176 169 168
259 259 270 279 275 278 284 292 297 298 303 307 303 302 304 304 306 307 307 308 310 310 307 308 309 308 295 289 286 280 272 269 256 236 222 209 206 198 195 191 183 174 170 169
260 269 278 272 275 289 294 290 292 294 296 298 299 300 300 300 302 303 304 306 307 306 305 307 310 306 299 291 286 280 274 273 270 241 219 209 214 210 210 217 203 185 180 174
253 254 258 274 288 302 299 298 296 298 299 299 296 296 297 298 298 299 301 303 303 302 303 306 306 303 303 297 284 279 276 270 263 245 230 202 178 138 199 201 193 185 182 178
256 268 270 280 286 291 290 291 290 289 290 295 297 295 297 298 299 300 301 303 304 302 301 299 298 295 299 298 287 274 268 269 261 239 224 206 179 170 151 69 126 154 162 165
259 267 269 268 275 286 283 286 289 287 286 287 291 295 297 299 302 304 304 304 305 302 300 299 298 297 301 303 291 275 264 261 251 225 211 209 190 184 178 171 157 138 144 153
253 251 259 276 281 281 284 290 290 289 291 293 295 297 299 300 301 301 303 305 305 301 301 302 301 301 309 305 284 268 265 257 238 214 212 209 191 181 176 174 163 152 138 142
256 258 263 266 271 276 284 286 285 288 294 297 300 302 302 299 297 297 299 301 299 297 298 298 295 298 304 299 288 278 262 257 255 224 209 203 187 180 177 170 164 167 168 157
243 253 255 262 270 277 277 279 283 289 293 295 298 301 301 299 298 297 298 297 292 290 293 292 293 296 293 284 274 260 246 243 250 234 217 200 188 187 181 169 171 173 172 167
232 243 249 256 263 273 281 285 289 292 293 294 299 300 298 297 296 297 300 301 298 296 294 292 292 292 287 282 275 248 234 233 232 223 217 203 195 186 175 171 169 170 160 157
229 244 262 266 268 274 284 291 295 294 293 294 295 294 291 289 291 294 297 298 295 294 297 299 300 299 292 284 281 240 223 230 243 232 208 201 202 179 173 170 168 168 162 158
270 281 295 301 304 296 294 295 296 295 296 298 297 295 293 293 294 295 294 288 280 279 291 298 299 291 285 280 281 242 223 223 230 226 209 191 179 176 173 170 167 165 161 160
290 296 297 297 299 297 295 297 297 296 297 296 291 289 289 291 293 293 291 288 288 287 291 295 294 286 284 283 281 254 234 227 223 216 204 185 175 173 170 169 167 162 156 154
275 280 287 295 297 296 296 296 292 291 292 291 288 288 289 291 292 287 276 274 287 292 294 287 284 282 284 285 268 254 242 233 222 205 195 183 178 176 173 170 166 162 156 155
274 283 290 293 293 294 296 293 290 289 288 289 289 289 287 287 288 287 289 288 292 294 294 283 287 289 286 283 262 249 236 226 216 201 195 190 185 180 173 171 167 161 158 156
291 294 295 297 298 296 293 292 289 287 285 284 283 283 285 288 286 278 278 291 296 296 291 286 289 288 285 274 256 240 230 217 208 195 191 189 182 174 168 166 164 160 156 156
286 286 286 289 288 284 287 293 292 289 288 285 284 281 278 276 280 288 288 287 290 294 289 286 287 288 283 268 251 236 229 219 210 193 186 182 174 167 164 165 163 158 155 157
282 281 280 278 278 283 287 290 290 292 295 294 293 291 289 286 286 287 287 287 285 287 286 282 281 281 273 263 251 238 222 215 207 188 174 168 163 163 162 164 164 162 158 157
283 282 285 287 286 284 285 286 288 290 291 291 292 294 293 292 291 290 290 289 289 287 283 280 276 271 268 263 255 243 218 197 176 167 168 167 164 163 161 162 162 157 154 154